STARLINK-1143, 45179

Orbit data source: Space-Track

STARLINK-1143, 45179 is a payload satellite owned by SpaceX/Seattle (US) in LEO that was launched on Mon, 17 Feb 2020 UTC via an FALCON 9 launch vehicle from the Air Force Eastern Test Range (AFETR). Payload-class satellites include a variety of spacecraft equipped with specific instruments for various scientific and technological missions. These include communications satellites like Starlink; space stations such as the ISS; scientific satellites like the Hubble; Earth observation satellites from companies like Planet Labs, Umbra, and HawkEye 360; GPS; miniature CubeSats for education and research; and military/defense satellites.

Loading next visibility...
Identifier
45179, 2020-012B
Orbit
LEO
Country
Flag of USUS
Related business
Manufacturer
SpaceX/Seattle
Mission
Partially operational Commercial Communications
Bus & Motor
STARLINK, Unknown motor
Mass
260 kg wet, ~248 kg dry
Launch date (UTC)
2020-02-17 (6 years ago)
Launch vehicle
FALCON 9
Launch site
Air Force Eastern Test Range (AFETR)
Object type
Payload
Rocket body
Debris
Shape & HBR
Box + 1 Pan, 10.1 m
Radar Cross Section
13.562 m², Large (>1 m²)

Expand to show TLE details & history
Last TLE update: 8 hours ago

TLE from 8 hours ago
0 STARLINK-1143
1 45179U 20012B   26073.93547896  .00133495  00000-0  13657-2 0  9999
2 45179  53.0463 304.2197 0007188 117.8876 242.2867 15.64078237336744
Epoch: 2026-03-14T22:27Z
TLE epoch observation values (Epoch: 2026-03-14T22:27:05.382Z)
Latitude
0.00002°
Longitude
154.89776°
Altitude
379.052 km
Speed
7.682 km/s
True Right ascension
20h 16m 52s
True Declination
0° 00' 00"
Sunlit
Object was in daylight at epoch
Visualization orbit readout
Latitude
Unknown
Longitude
Unknown
Altitude
Unknown
Speed
Unknown
Apparent Right ascension
Unknown
Apparent Declination
Unknown
Sunlit
N/A
Visualization observer readout
Local Sidereal Time
10:32:49
Azimuth
Unknown
Elevation
Unknown
Doppler factor
Unknown
Orbital elements
Apogee altitude
381.025 km
Perigee altitude
371.315 km
Semi-major axis
6,754.307 km
Eccentricity
0.00072
Inclination
53.0463°
RAAN
304.2197°
Arg. of periapsis
117.8876°
True anomaly
242.21381°
Mean anomaly
242.2867°
Eccentric anomaly
242.25025°
Mean motion
3.90996 °/min
Orbital period
92.07 mins
BSTAR
0.0013657
Loading maneuver chart data...
Computing Atmospheric mass density...
Loading historical data...
Loading historical data...
Loading historical data...
Loading historical data...
Loading historical data...
Loading historical data...
Loading historical data...

Documentation

Showing up to 5 results
|